FREGAT DEB, 45979

Orbit data source: Space-Track

FREGAT DEB, 45979 is space debris in LEO originally from a launch on Mon, 18 Jul 2011 UTC launched from the Tyuratam Missile And Space Complex (TTMTR). Debris objects in space refer to the collection of defunct objects orbiting the Earth. Examples of debris include non-operational satellites, rocket bodies, and fragments generated from explosions, collisions, or faulty payload assembly.

Loading next visibility...
Identifier
45979, 2011-037GL
Orbit
LEO
Country
Flag of CISCIS
Related business
Manufacturer
Lavochkin
Mission
Spacecraft
Bus & Motor
Unknown
Mass
Unknown
Launch date (UTC)
2011-07-18 (14 years ago)
Launch vehicle
Unknown
Launch site
Tyuratam Missile And Space Complex (TTMTR)
Object type
Payload
Rocket body
Debris
Shape & HBR
Unknown shape, 0.1 m
Radar Cross Section
Small (<0.1 m²)

Expand to show TLE details & history
Last TLE update: 21 hours ago

TLE from 21 hours ago
0 FREGAT DEB
1 45979U 11037GL  25349.08729675  .00000647  00000-0  12999-2 0  9992
2 45979  51.5057 244.2260 1893377 140.6530 234.8424 10.63076868209368
Epoch: 2025-12-15T02:05Z
TLE epoch observation values (Epoch: 2025-12-15T02:05:42.439Z)
Latitude
Longitude
128.80828°
Altitude
3,489.389 km
Speed
5.932 km/s
True Right ascension
16h 16m 54s
True Declination
0° 00' 00"
Sunlit
Object was in daylight at epoch
Visualization orbit readout
Latitude
Unknown
Longitude
Unknown
Altitude
Unknown
Speed
Unknown
Apparent Right ascension
Unknown
Apparent Declination
Unknown
Sunlit
N/A
Visualization observer readout
Local Sidereal Time
21:19:30
Azimuth
Unknown
Elevation
Unknown
Doppler factor
Unknown
Orbital elements
Apogee altitude
4,013.54 km
Perigee altitude
704.915 km
Semi-major axis
8,737.365 km
Eccentricity
0.18934
Inclination
51.5057°
RAAN
244.226°
Arg. of periapsis
140.653°
True anomaly
219.4237°
Mean anomaly
234.8424°
Eccentric anomaly
226.91896°
Mean motion
2.6575 °/min
Orbital period
135.47 mins
BSTAR
0.0012999
Loading maneuver chart data...
Computing Atmospheric mass density...
Loading historical data...
Loading historical data...
Loading historical data...
Loading historical data...
Loading historical data...
Loading historical data...
Loading historical data...

Documentation

Showing up to 5 results
|